Dewpoint
4 -1 -3 0 2 2 2 2 2 1 1 -7 -8 -10 -16 -16 -13 -12 -16 -18 -17 -13 -8 -6 -7 -7 -8 -6 -8 -11 -12 -9 -9 -8 -8 -6 -7 -5 -4 -6 -5 -4 -4 -4 -3 -3 -3
4 3 -0 -3 -0 2 2 2 2 1 1 1 -8 -9 -10 -14 -16 -17 -16 -15 -15 -9 -7 -11 -9 -4 -4 -4 -7 -10 -11 -10 -9 -8 -8 -5 -6 -6 -6 -5 -4 -4 -4 -4 -3 -2 -2
7 3 2 0 -3 -2 0 2 2 2 1 0 1 -10 -11 -10 -11 -13 -14 -14 -15 -12 -7 -9 -11 -9 -3 -5 -7 -9 -9 -9 -8 -9 -7 -9 -8 -4 -4 -4 -4 -5 -5 -3 -4 -3 -2
8 8 4 3 1 -1 -3 -2 1 2 2 1 0 0 -10 -13 -11 -13 -14 -15 -12 -10 -9 -10 -9 -9 -3 -4 -6 -7 -8 -8 -9 -8 -9 -9 -8 -6 -3 -5 -7 -5 -6 -2 -3 -4 -1
8 8 8 7 6 4 -0 -3 -4 -1 2 2 1 -1 0 -5 -13 -15 -16 -16 -7 -8 -9 -7 -5 -7 -5 -7 -5 -7 -8 -8 -8 -8 -8 -10 -8 -4 -4 -2 -2 -3 -3 -4 -3 -5 -4
8 8 8 8 8 7 6 1 -4 -5 -2 2 1 1 -0 -1 -0 -3 -11 -14 -12 -8 -6 -11 -8 -4 -5 -6 -6 -6 -7 -8 -7 -5 -4 -5 -4 -1 -2 -3 -0 -3 -3 -4 -2 -4 -3
8 8 8 8 8 7 7 6 2 -3 -6 -2 2 1 -1 -1 -1 0 -1 -11 -6 -2 -2 -3 -4 -4 -4 -5 -5 -3 -7 -8 -5 -4 -1 -3 1 0 -5 -5 -5 -4 -3 -2 -3 -5 -4
8 8 8 8 8 8 7 7 6 3 -2 -6 -1 1 -1 -1 -1 -1 -3 -4 -6 -2 1 -4 -4 -4 -5 -4 -3 -2 -6 -5 -4 -0 -3 -1 2 -5 -7 -6 -5 -3 -2 -1 -3 -4 -3
8 8 8 8 7 7 7 7 7 6 4 -1 -5 -0 -0 -2 -1 -3 -6 -5 -5 -5 1 -2 -3 -3 -4 -4 -3 -1 -5 -5 -4 -2 -2 -0 -3 -6 -6 -4 -3 -3 -2 -2 -2 -2 -3
8 9 8 8 7 7 6 7 7 6 6 5 0 -4 -0 -1 1 -4 -5 -6 -6 -6 3 1 -1 -1 -3 -4 -2 -3 -4 -6 -3 -2 -2 -1 -5 -5 -3 -2 -4 -1 -4 -3 -1 0 2
6 8 8 8 6 5 6 5 6 6 6 5 5 2 -3 -0 -4 -4 -6 -7 -8 -3 11 0 -0 -2 -2 -2 -2 -0 -3 -4 -2 -2 -3 2 -3 -3 -1 -2 -5 -2 -4 -2 -1 1 1
-2 4 6 6 5 4 3 4 4 5 5 5 5 4 0 -1 -0 -6 -9 -7 -1 8 10 2 -0 0 -0 -1 -1 -1 -3 -5 -4 -2 -3 -2 -4 -4 -4 -6 -6 -6 -2 -1 -1 1 5
-8 -7 -5 -2 1 2 3 3 4 4 3 4 3 3 3 -0 0 -0 -1 0 9 9 0 2 2 -0 -0 0 -1 -2 -1 -0 1 3 5 0 -0 -4 -6 -3 -4 -3 2 7 7 7 7
-9 -9 -9 -8 -6 -4 -1 1 3 3 1 0 2 1 2 1 1 1 2 7 9 2 1 0 0 1 2 -0 -0 -1 0 1 -1 -1 2 4 7 -1 -5 -4 -1 -0 -0 5 6 5 4
-10 -9 -8 -7 -7 -5 -4 1 2 1 -3 -2 -1 0 0 2 2 -0 5 8 6 2 0 1 1 2 2 0 -1 -1 0 0 -1 -2 2 2 2 -5 -6 -6 -4 -0 1 -2 2 2 4
-9 -7 -5 -4 -3 -3 -2 0 3 2 -0 1 -1 1 2 2 -1 -1 6 6 3 -0 -1 -0 2 -0 1 0 -0 -0 -0 -1 -1 -3 -2 -0 3 -1 -5 -6 -5 -3 -4 2 2 7 7
-5 -2 1 2 2 2 2 2 4 3 1 3 1 3 4 -0 -1 3 7 4 2 -1 -2 0 1 1 1 1 -0 0 -0 -1 -3 -3 -3 -1 1 2 -1 -1 1 -2 -1 -1 0 7 8
5 5 4 4 3 4 5 5 5 5 5 4 4 6 3 1 5 3 4 2 -0 -1 -2 -1 -1 -0 1 0 1 1 1 -0 -4 -4 -1 -2 0 3 2 -3 -4 -3 -1 -1 6 7 6
6 6 6 7 7 6 6 5 5 5 5 6 7 6 4 -0 5 3 3 2 1 0 -1 -1 0 -0 -1 0 2 1 1 -0 -3 -4 -2 -2 1 5 5 1 1 2 2 0 4 6 7
7 6 6 6 6 6 6 6 6 5 5 5 7 6 4 2 3 3 3 3 3 1 0 -1 -0 -1 -0 1 0 2 1 -0 -2 -3 -3 -2 0 3 6 4 5 6 6 5 5 7 6
7 7 7 7 6 6 6 6 6 5 6 6 7 6 5 5 4 4 4 4 5 4 2 0 2 1 2 4 3 3 2 1 -0 -2 -3 0 3 2 3 4 5 6 6 5 7 6 7
5 5 5 5 5 6 6 6 6 7 7 7 6 6 5 5 4 4 4 5 5 4 4 4 4 4 2 3 2 3 2 3 4 -2 -0 3 6 5 6 6 6 6 5 5 5 5 6
0 1 -0 -0 1 3 5 5 5 6 6 7 7 7 5 5 4 5 5 4 4 3 3 3 2 3 3 3 2 2 3 3 3 4 2 4 4 5 7 5 6 7 5 4 4 2 2
-17 -12 -8 -7 -6 -6 -5 -0 2 4 5 5 6 7 6 6 5 5 4 3 4 3 4 3 2 3 2 2 3 3 3 3 2 2 2 4 4 5 6 6 7 2 0 -0 -1 -3 -3
-15 -14 -14 -15 -13 -12 -12 -14 -11 -2 0 2 4 4 6 6 5 5 5 4 5 4 4 4 3 3 3 3 4 6 5 5 4 3 3 2 4 6 6 7 5 3 -2 -0 2 -3 -5
-3 -3 -2 -5 -12 -15 -17 -18 -18 -19 -18 -11 -1 4 4 5 5 4 4 5 5 5 4 4 3 3 4 5 6 6 6 4 4 4 -0 1 3 6 6 6 6 -2 -6 -5 -3 -1 -8
-4 -3 -3 -4 -3 -3 -4 -9 -14 -15 -19 -14 -15 -1 3 4 3 4 4 3 3 4 5 4 4 3 3 5 6 6 6 4 6 5 4 4 5 6 6 7 2 -7 -8 -5 2 -3 -8
-4 -3 -3 -3 -3 -3 -3 -3 -3 -3 -5 -2 -2 -4 1 2 2 3 3 3 5 4 5 5 5 5 4 5 6 5 6 5 6 5 5 6 6 5 5 6 5 -8 -7 -5 -8 -8 -9
-4 -4 -4 -3 -3 -3 -3 -3 -3 -3 -2 -2 -3 -3 -1 1 0 1 3 4 4 4 4 5 4 5 4 4 3 3 4 3 5 6 4 6 -0 1 -3 -4 -9 -9 -9 -10 -10 -10 -10
Wind_Speed
22 23 23 22 21 20 20 21 21 18 15 12 9 8 7 6 5 5 5 5 4 3 4 6 9 7 1 2 3 8 5 6 8 10 5 3 3 2 2 3 4 2 4 2 2 3 7
21 22 23 22 21 20 21 21 22 20 16 13 10 8 6 5 4 4 4 4 1 1 3 6 7 8 6 1 8 5 5 5 5 7 8 5 3 1 3 3 4 3 2 6 5 7 7
19 21 22 23 23 22 22 22 22 21 17 14 10 8 5 3 2 2 2 1 1 1 5 7 5 4 3 1 5 4 4 4 5 5 4 4 2 4 2 3 1 2 4 8 10 8 2
17 20 22 23 23 24 24 23 22 21 19 16 13 9 6 3 1 1 1 1 3 5 4 4 3 2 3 4 7 6 4 4 3 4 4 2 3 2 2 2 4 4 4 3 5 7 3
16 18 20 22 23 24 24 24 23 21 20 18 14 12 9 5 4 3 4 4 1 7 4 2 3 3 2 5 4 8 4 2 3 4 4 2 1 1 1 3 3 3 4 5 1 9 2
14 16 18 20 21 22 24 24 24 23 21 18 16 13 11 8 5 5 6 7 9 10 5 4 3 3 3 2 6 7 5 3 2 4 5 0 2 3 3 4 2 4 4 6 7 4 7
11 14 16 18 20 21 22 24 24 24 23 19 17 15 14 12 4 6 6 4 4 1 1 3 2 2 3 7 5 6 6 2 2 4 3 4 1 2 5 3 4 4 6 9 6 4 4
10 12 15 17 19 21 22 22 23 24 24 22 18 16 15 11 6 9 4 0 4 2 4 5 3 2 4 5 1 4 5 3 3 5 1 2 4 5 3 1 3 6 9 8 1 3 5
9 11 14 16 18 20 21 23 23 23 24 24 21 17 15 11 6 9 5 1 1 2 4 2 4 2 3 4 2 3 4 2 3 4 2 4 2 4 1 5 7 7 7 3 4 8 9
9 11 13 15 17 19 20 22 22 22 23 23 24 19 16 12 5 9 4 3 2 2 3 4 3 2 1 3 2 5 3 1 3 3 4 5 4 2 4 6 2 5 5 4 7 7 3
12 13 14 16 17 18 19 20 21 22 22 22 22 22 16 12 7 6 4 2 3 1 4 1 2 2 3 3 4 2 2 1 4 1 0 3 4 4 4 2 3 2 3 6 4 4 6
13 14 16 17 18 18 19 19 20 21 22 22 21 21 18 12 7 7 5 5 4 0 5 2 1 1 3 6 3 1 1 2 3 3 6 3 2 2 2 1 2 7 5 8 6 1 2
14 15 16 17 18 18 18 19 19 20 20 21 20 20 19 11 8 9 8 4 1 3 1 3 1 0 2 3 2 2 2 4 4 3 4 5 4 3 0 3 2 3 4 4 3 1 6
15 15 16 17 17 17 17 17 18 20 21 19 19 18 15 9 8 9 9 2 3 2 5 1 1 5 4 4 3 2 3 4 6 2 3 3 5 7 7 2 1 2 1 3 5 3 6
16 16 16 17 18 18 17 17 18 20 22 21 18 17 14 7 6 9 4 3 3 4 2 5 4 2 5 3 2 4 7 4 3 7 5 3 5 2 1 2 1 3 4 1 4 5 5
17 14 15 15 16 18 18 18 19 20 21 21 20 15 10 6 7 8 2 4 2 2 2 3 3 0 3 2 3 5 3 3 4 1 4 3 6 3 3 1 3 3 3 1 0 4 6
15 12 13 15 16 17 18 18 19 20 20 19 15 9 5 8 12 2 3 2 1 2 1 3 4 4 6 7 1 4 6 2 3 4 2 4 5 2 5 7 7 2 3 3 1 4 3
13 14 15 16 17 17 17 18 19 21 20 15 8 4 7 17 4 4 2 3 2 1 2 2 2 3 4 5 5 5 6 3 5 8 4 2 3 5 7 4 5 1 2 6 3 3 3
18 17 17 18 18 19 19 18 17 18 19 19 11 8 10 4 3 3 2 3 2 4 4 4 3 5 2 3 5 8 7 2 2 2 2 4 4 4 4 2 3 2 2 3 2 2 9
22 23 21 22 24 23 22 19 16 15 15 14 7 3 6 4 5 3 6 6 5 4 4 4 3 2 4 6 8 7 5 2 4 5 4 3 4 8 14 13 2 4 7 8 11 5 9
18 18 21 24 25 24 24 21 17 16 14 9 4 4 2 3 3 6 8 7 12 9 9 4 4 7 8 7 8 13 5 6 4 2 2 2 7 9 12 14 15 22 21 20 15 20 13
12 14 14 17 16 16 17 16 17 15 12 10 5 4 2 7 13 12 7 7 12 13 14 12 12 12 8 8 9 13 10 5 6 3 3 1 4 2 11 12 18 23 20 21 23 24 21
22 19 18 18 18 17 17 16 13 11 11 9 9 15 9 6 6 7 7 11 10 13 8 10 9 5 6 9 13 13 15 14 15 8 7 5 4 2 16 5 8 12 14 17 14 7 6
19 19 19 19 20 22 22 22 21 19 15 12 13 14 6 4 8 10 8 14 13 11 12 15 12 9 8 14 18 19 22 27 27 24 25 7 5 3 10 4 10 2 14 12 16 13 13
16 16 17 18 19 20 21 22 23 25 23 23 20 11 6 3 9 10 17 18 21 22 19 20 24 27 24 12 3 6 4 5 11 17 18 18 11 4 5 8 11 7 6 6 4 6 11
17 17 17 18 18 18 20 21 20 20 21 23 25 18 15 7 7 19 15 18 11 12 13 21 24 10 9 5 3 4 4 2 4 2 3 1 15 7 3 5 6 5 8 13 7 2 13
19 17 17 18 18 19 19 18 18 19 19 19 21 14 13 16 29 25 12 11 20 6 4 4 6 4 9 3 4 4 6 5 4 5 3 3 2 12 12 6 3 8 17 12 4 2 7
19 19 19 18 18 19 19 19 18 17 17 14 18 14 14 19 32 29 28 24 18 10 9 4 3 6 4 4 4 5 4 4 2 3 2 4 4 4 3 5 6 17 5 4 1 6 6
21 21 21 21 21 21 20 19 19 17 17 16 20 14 13 24 25 25 23 22 30 32 30 16 5 5 7 2 2 2 3 1 2 3 4 4 2 0 2 2 6 12 16 9 6 2 6
Wind_Direction
38 39 40 40 39 38 36 35 34 35 37 40 44 50 57 69 77 84 91 99 102 90 84 67 29 21 61 36 11 339 356 25 38 46 34 40 357 324 294 110 277 306 158 225 214 253 264
39 40 40 39 38 36 35 33 32 31 31 31 35 42 50 63 78 93 108 110 79 122 118 17 14 32 27 317 327 340 8 20 25 41 25 84 57 20 50 40 317 26 275 240 211 249 258
41 40 40 38 37 35 33 30 29 28 28 30 34 33 34 45 78 105 128 100 29 326 267 311 339 357 17 20 349 346 355 10 14 27 30 35 85 4 331 161 211 280 274 213 220 226 262
40 39 38 36 35 34 32 29 26 24 24 24 27 28 27 26 341 261 216 287 315 311 311 314 330 330 294 296 356 357 348 348 1 28 22 41 56 72 34 270 234 246 200 274 141 177 175
37 37 34 33 32 31 30 29 25 22 20 20 19 18 9 1 330 302 269 280 279 359 278 333 0 326 256 309 340 347 319 315 300 301 331 338 353 244 238 220 228 233 295 329 107 188 161
31 34 29 28 27 26 26 26 25 21 17 15 13 9 360 349 314 318 285 280 278 308 328 279 272 259 268 280 310 337 341 276 330 298 310 272 244 249 238 16 338 335 335 340 297 173 206
22 28 23 21 21 20 20 21 21 20 18 14 9 5 358 349 334 320 318 308 321 305 343 241 185 262 287 302 293 333 347 323 330 257 280 170 285 249 58 39 345 315 292 284 292 94 328
4 17 15 14 14 13 13 13 14 15 16 14 10 5 2 4 9 351 344 155 286 199 277 244 242 269 280 342 299 302 353 318 228 269 150 215 241 83 80 329 283 279 269 284 352 147 319
348 3 3 5 6 7 7 7 7 8 10 12 9 6 4 2 357 1 17 6 327 254 264 216 224 216 253 330 310 273 344 275 287 279 228 274 101 120 227 266 260 274 279 356 297 321 279
334 345 347 351 353 357 360 360 0 1 3 6 7 5 4 4 9 359 28 56 21 325 267 150 176 228 305 323 257 264 311 309 231 303 346 262 113 224 262 263 206 292 32 350 310 353 298
326 327 329 335 341 345 349 351 353 355 356 358 1 2 359 5 359 7 8 2 345 18 343 80 141 253 261 217 296 225 281 308 278 347 201 248 183 209 250 266 95 301 344 268 277 291 303
319 317 320 325 330 336 339 343 346 348 351 351 352 355 355 351 357 2 354 329 321 299 256 137 136 209 254 189 209 295 275 260 264 291 212 267 108 256 333 30 223 337 293 254 187 195 293
312 313 315 319 322 327 332 336 338 341 343 345 347 347 346 352 344 347 336 335 324 220 120 130 25 230 312 237 229 206 220 205 227 296 238 169 196 124 163 262 141 237 316 320 335 297 231
307 310 314 316 319 322 327 329 331 335 336 337 338 339 334 339 346 349 341 241 265 90 53 167 232 260 231 36 203 199 272 265 196 151 296 250 300 179 167 256 84 284 166 193 277 286 283
307 311 315 316 319 322 327 327 327 332 334 333 335 332 320 314 335 348 1 273 292 32 348 350 284 256 184 155 241 216 217 247 99 190 215 306 225 121 188 81 141 131 208 343 300 267 271
302 309 314 317 321 326 331 329 330 333 338 336 338 332 298 306 319 330 282 254 121 74 299 231 269 98 311 90 206 198 259 120 163 306 87 335 301 155 107 159 233 202 351 252 201 285 273
306 309 314 318 321 324 326 328 329 331 338 340 340 325 264 326 319 232 228 251 107 145 216 252 304 293 265 300 318 293 267 186 97 149 271 341 197 170 132 200 183 149 228 206 311 205 250
317 314 312 313 314 317 321 325 327 330 334 339 353 292 300 316 283 215 275 32 351 206 228 252 275 278 267 317 287 275 247 284 118 154 204 186 296 262 237 95 73 43 262 178 160 207 238
305 304 306 309 311 312 314 319 325 333 343 346 327 279 286 288 268 286 115 161 220 197 214 186 250 220 26 283 287 237 267 110 130 204 277 186 232 301 291 117 54 38 330 230 137 225 225
291 294 293 296 300 302 304 304 309 319 329 338 319 303 251 238 268 293 318 298 276 207 256 234 283 54 262 238 237 268 289 175 158 220 283 336 254 227 256 265 14 222 236 229 216 217 261
267 273 281 286 291 291 292 295 292 297 303 317 247 261 309 305 296 0 317 297 288 286 221 193 236 223 259 279 285 275 323 355 163 172 108 277 253 253 266 284 291 276 275 262 235 241 241
288 287 290 288 290 291 286 286 293 291 286 272 268 273 290 275 287 280 270 264 276 278 274 280 275 279 278 269 275 303 312 308 278 143 173 311 273 294 271 258 260 267 264 261 252 254 242
301 302 307 307 304 300 297 295 294 290 268 245 240 258 263 234 260 257 242 263 287 317 270 255 291 305 280 280 302 292 278 256 247 229 199 186 206 210 276 263 315 279 253 248 252 49 324
316 308 303 301 298 301 301 297 298 297 302 277 263 255 250 255 232 240 267 271 274 270 270 280 258 258 254 305 295 290 268 261 253 247 230 200 185 199 279 290 264 146 40 76 99 50 25
327 321 320 313 302 296 292 292 291 287 287 289 290 300 256 251 244 257 255 258 271 277 274 271 267 263 267 274 286 288 252 242 242 246 233 225 221 232 243 234 280 243 32 21 30 64 28
343 339 338 331 319 311 306 297 288 281 281 277 270 277 272 287 242 243 249 247 255 260 269 265 270 241 239 192 200 232 251 338 272 214 39 7 225 212 213 241 248 45 342 333 296 155 22
334 333 332 329 331 329 325 317 306 299 288 281 276 263 278 269 269 256 244 254 253 227 264 262 267 228 204 200 228 213 249 225 257 229 188 145 224 228 235 261 107 335 312 311 197 49 33
330 332 330 327 325 324 324 324 325 324 314 309 283 244 263 268 270 269 268 267 266 257 253 229 270 214 186 231 217 234 233 212 236 327 264 200 208 202 201 232 235 344 55 58 8 25 19
330 327 324 322 320 321 320 321 321 316 319 317 299 287 263 260 257 276 263 254 252 255 257 247 232 176 201 194 261 276 230 231 237 249 155 213 325 318 45 39 107 58 91 91 68 46 356
Height
1548 1545 1542 1540 1537 1535 1532 1529 1526 1523 1521 1520 1518 1517 1517 1516 1516 1516 1516 1516 1516 1516 1516 1516 1515 1514 1514 1514 1515 1513 1511 1510 1508 1507 1506 1506 1506 1506 1505 1506 1506 1505 1508 1509 1509 1509 1509
1551 1548 1546 1543 1540 1537 1534 1531 1528 1525 1523 1521 1519 1519 1518 1518 1517 1517 1517 1517 1517 1517 1517 1517 1516 1515 1515 1515 1514 1513 1511 1510 1509 1508 1507 1506 1507 1507 1507 1508 1508 1507 1507 1507 1507 1508 1508
1554 1552 1549 1546 1542 1539 1537 1534 1531 1528 1525 1523 1521 1520 1520 1519 1519 1519 1518 1518 1518 1518 1517 1517 1516 1516 1515 1517 1513 1512 1511 1510 1509 1508 1508 1507 1507 1508 1508 1507 1508 1507 1508 1504 1504 1506 1506
1556 1554 1551 1548 1545 1542 1539 1536 1533 1530 1528 1525 1524 1522 1521 1520 1520 1519 1519 1519 1518 1518 1517 1517 1516 1516 1515 1515 1513 1512 1511 1510 1510 1509 1509 1508 1508 1508 1508 1508 1507 1507 1505 1506 1500 1503 1504
1558 1556 1553 1550 1548 1545 1542 1539 1536 1532 1530 1527 1525 1524 1522 1521 1520 1520 1519 1519 1518 1517 1517 1517 1517 1516 1515 1514 1513 1512 1511 1510 1510 1509 1509 1509 1508 1509 1508 1507 1507 1504 1508 1500 1500 1500 1502
1559 1557 1555 1553 1550 1547 1544 1541 1538 1535 1532 1529 1526 1524 1522 1521 1519 1519 1518 1518 1517 1517 1516 1516 1516 1519 1516 1515 1513 1512 1510 1510 1510 1510 1510 1509 1509 1508 1506 1507 1519 1512 1509 1505 1504 1500 1501
1560 1559 1557 1555 1553 1550 1547 1544 1540 1537 1534 1530 1527 1524 1522 1519 1518 1518 1517 1517 1519 1518 1516 1516 1516 1515 1514 1513 1512 1511 1510 1510 1510 1511 1509 1508 1512 1509 1507 1508 1509 1510 1511 1509 1497 1499 1501
1562 1561 1559 1557 1555 1552 1548 1545 1542 1539 1535 1532 1528 1525 1522 1519 1518 1517 1516 1517 1518 1519 1516 1514 1513 1513 1513 1512 1512 1511 1511 1511 1510 1509 1507 1510 1511 1506 1507 1509 1510 1509 1511 1504 1495 1497 1500
1562 1562 1560 1558 1556 1553 1550 1547 1544 1540 1536 1533 1529 1526 1523 1520 1519 1518 1517 1517 1517 1518 1517 1514 1513 1513 1513 1513 1511 1511 1511 1510 1508 1507 1505 1510 1507 1507 1508 1507 1507 1504 1504 1503 1508 1501 1491
1562 1562 1560 1559 1557 1554 1552 1548 1545 1542 1538 1535 1531 1527 1524 1521 1522 1519 1518 1518 1518 1518 1517 1514 1513 1513 1512 1511 1511 1509 1509 1511 1508 1508 1506 1506 1507 1507 1508 1508 1504 1511 1505 1506 1507 1511 1512
1563 1562 1560 1559 1557 1555 1552 1549 1546 1543 1539 1536 1533 1529 1525 1523 1522 1520 1521 1519 1518 1519 1537 1513 1512 1512 1510 1512 1510 1509 1509 1509 1508 1505 1508 1504 1505 1507 1508 1503 1503 1504 1505 1506 1506 1511 1509
1562 1561 1560 1558 1556 1554 1552 1549 1546 1543 1540 1536 1533 1530 1527 1525 1523 1522 1520 1519 1519 1523 1540 1512 1511 1511 1511 1509 1509 1508 1509 1509 1508 1507 1505 1503 1504 1505 1503 1503 1504 1504 1503 1498 1504 1508 1520
1561 1559 1558 1557 1555 1553 1551 1548 1545 1542 1539 1536 1533 1530 1527 1525 1524 1521 1520 1519 1523 1527 1510 1513 1511 1510 1510 1508 1506 1507 1506 1508 1510 1511 1506 1501 1502 1503 1504 1505 1505 1506 1507 1519 1516 1523 1510
1559 1558 1557 1555 1553 1551 1549 1547 1544 1541 1538 1535 1532 1529 1527 1525 1523 1521 1519 1519 1526 1508 1507 1511 1511 1509 1513 1507 1507 1506 1507 1506 1498 1503 1509 1508 1515 1502 1503 1502 1504 1503 1506 1520 1516 1508 1501
1557 1556 1555 1553 1551 1550 1548 1545 1543 1540 1536 1533 1530 1527 1524 1523 1522 1521 1520 1523 1514 1512 1512 1513 1508 1510 1507 1507 1510 1506 1503 1499 1496 1500 1507 1501 1498 1499 1500 1501 1503 1506 1513 1504 1507 1497 1505
1555 1554 1553 1552 1550 1548 1546 1544 1541 1538 1535 1531 1528 1525 1522 1522 1521 1520 1521 1517 1510 1512 1513 1513 1513 1505 1507 1503 1508 1506 1496 1492 1496 1497 1499 1498 1507 1494 1503 1503 1503 1504 1505 1509 1511 1518 1500
1553 1552 1551 1550 1549 1547 1545 1543 1540 1537 1534 1531 1528 1524 1521 1521 1520 1519 1520 1510 1510 1512 1513 1514 1509 1508 1506 1505 1503 1504 1498 1493 1494 1499 1500 1500 1503 1502 1501 1502 1499 1509 1507 1505 1505 1511 1507
1551 1550 1549 1548 1547 1545 1543 1542 1539 1536 1533 1531 1528 1526 1520 1520 1520 1513 1512 1511 1514 1512 1514 1513 1512 1510 1509 1507 1506 1504 1499 1493 1495 1497 1501 1498 1500 1502 1490 1490 1489 1492 1493 1495 1507 1503 1503
1548 1548 1547 1546 1545 1543 1542 1541 1539 1536 1533 1530 1528 1524 1519 1518 1518 1512 1510 1510 1511 1511 1511 1511 1510 1508 1507 1508 1511 1499 1496 1496 1497 1499 1497 1496 1499 1505 1493 1495 1492 1494 1492 1493 1499 1509 1498
1545 1545 1544 1543 1542 1541 1540 1538 1538 1536 1534 1533 1531 1524 1517 1516 1515 1514 1513 1510 1510 1509 1509 1509 1508 1508 1508 1507 1505 1499 1496 1494 1495 1498 1499 1499 1494 1491 1489 1480 1484 1497 1497 1494 1497 1495 1482
1541 1540 1540 1539 1538 1537 1536 1535 1534 1534 1533 1532 1530 1523 1521 1517 1514 1516 1514 1512 1512 1511 1507 1507 1505 1505 1506 1506 1501 1496 1493 1493 1494 1496 1498 1501 1499 1489 1483 1482 1482 1479 1479 1480 1483 1478 1479
1537 1537 1536 1535 1535 1533 1532 1531 1531 1530 1529 1529 1528 1523 1520 1517 1515 1514 1514 1509 1508 1506 1505 1504 1503 1500 1501 1501 1498 1498 1496 1498 1495 1496 1498 1502 1498 1497 1484 1485 1482 1473 1471 1468 1465 1459 1463
1535 1534 1533 1532 1531 1530 1529 1528 1526 1526 1525 1522 1521 1519 1519 1514 1512 1511 1507 1505 1502 1503 1501 1501 1501 1500 1499 1498 1496 1494 1494 1494 1493 1492 1496 1498 1498 1496 1473 1475 1478 1467 1456 1452 1447 1462 1464
1531 1530 1529 1528 1527 1526 1525 1524 1523 1522 1522 1519 1517 1516 1514 1506 1507 1505 1502 1501 1500 1500 1500 1499 1499 1498 1497 1495 1493 1490 1487 1483 1481 1475 1479 1486 1490 1489 1473 1477 1467 1452 1457 1457 1470 1483 1484
1529 1528 1526 1524 1523 1520 1519 1519 1519 1519 1518 1516 1515 1514 1509 1502 1502 1500 1500 1498 1497 1496 1495 1494 1492 1490 1491 1492 1492 1487 1480 1475 1463 1460 1465 1470 1475 1478 1472 1465 1448 1448 1468 1472 1469 1489 1491
1529 1527 1524 1521 1519 1516 1515 1514 1514 1514 1513 1511 1509 1510 1508 1501 1492 1494 1494 1494 1492 1490 1487 1486 1486 1484 1485 1486 1487 1483 1476 1465 1462 1457 1461 1461 1461 1470 1467 1461 1452 1476 1478 1480 1478 1480 1494
1527 1524 1522 1520 1517 1515 1513 1511 1509 1508 1506 1505 1502 1508 1504 1497 1489 1493 1487 1488 1488 1486 1484 1482 1482 1481 1482 1482 1481 1479 1472 1467 1465 1455 1456 1465 1466 1458 1453 1447 1464 1489 1482 1478 1466 1492 1496
1524 1521 1519 1517 1515 1512 1510 1508 1505 1503 1501 1500 1497 1500 1500 1492 1481 1485 1485 1484 1484 1481 1479 1479 1479 1475 1479 1478 1471 1466 1463 1458 1458 1455 1453 1457 1458 1456 1454 1450 1448 1484 1479 1479 1499 1499 1499
1522 1519 1517 1514 1511 1508 1506 1504 1502 1500 1498 1495 1493 1494 1494 1488 1476 1474 1472 1474 1475 1475 1478 1475 1468 1468 1466 1472 1473 1468 1465 1464 1459 1453 1450 1452 1468 1464 1477 1481 1492 1489 1488 1493 1495 1497 1498